This demonstration page uses our WeatherBlox Daily Observations layout. Learn more.

Left ArrowRight Arrow

38.88101, -77.10428

Hourly Observations for April 3, 2021

Temp ( °F °C ) Dew Point ( °F °C ) Humidity (%) Winds ( mph kmh ) Pressure ( in mb ) Visibility ( mi km ) Precip ( " mm )
12:52 am 00:52 Mostly Clear 38 3.3 12 -11.1 34 34 NW 13 20 30.39 1029 10 16 0.00 0.00
1:52 am 01:52 Partly Cloudy 37 2.8 12 -11.1 36 36 NW 12 19 30.40 1029 10 16 0.00 0.00
2:52 am 02:52 Mostly Clear 36 2.2 13 -10.6 39 39 NW 9 15 30.40 1030 10 16 0.00 0.00
3:52 am 03:52 Clear 35 1.7 12 -11.1 38 38 NNW 10 17 30.40 1030 10 16 0.00 0.00
4:52 am 04:52 Clear 34 1.1 14 -10 44 44 NNW 7 11 30.42 1030 10 16 0.00 0.00
5:52 am 05:52 Clear 34 1.1 13 -10.6 42 42 NW 9 15 30.43 1031 10 16 0.00 0.00
6:52 am 06:52 Mostly Sunny 34 1.1 14 -10 44 44 WNW 6 9 30.45 1031 10 16 0.00 0.00
7:52 am 07:52 Sunny 37 2.8 15 -9.4 41 41 NW 7 11 30.48 1032 10 16 0.00 0.00
8:52 am 08:52 Mostly Sunny 41 5 17 -8.3 38 38 NNW 12 19 30.48 1032 10 16 0.00 0.00
9:52 am 09:52 Mostly Sunny 43 6.1 18 -7.8 37 37 NNW 10 17 30.48 1032 10 16 0.00 0.00
10:52 am 10:52 Mostly Sunny 45 7.2 18 -7.8 34 34 NW 6 9 30.47 1032 10 16 0.00 0.00
11:52 am 11:52 Partly Cloudy 47 8.3 18 -7.8 31 31 VRB 3 6 30.44 1031 10 16 0.00 0.00
12:52 pm 12:52 Partly Cloudy 50 10 18 -7.8 28 28 VRB 5 7 30.42 1030 10 16 0.00 0.00
1:52 pm 13:52 Partly Cloudy 52 11.1 17 -8.3 25 25 VRB 7 11 30.39 1029 10 16 0.00 0.00
2:52 pm 14:52 Partly Cloudy 53 11.7 14 -10 21 21 Calm 30.36 1028 10 16 0.00 0.00
3:52 pm 15:52 Partly Cloudy 56 13.3 16 -8.9 21 21 NW 9 15 30.33 1027 10 16 0.00 0.00
4:52 pm 16:52 Mostly Sunny 56 13.3 13 -10.6 18 18 W 7 11 30.31 1026 10 16 0.00 0.00
5:52 pm 17:52 Mostly Sunny 57 13.9 15 -9.4 19 19 VRB 5 7 30.29 1026 10 16 0.00 0.00
6:52 pm 18:52 Mostly Sunny 54 12.2 14 -10 20 20 WSW 7 11 30.28 1026 10 16 0.00 0.00
7:52 pm 19:52 Mostly Clear 50 10 21 -6.1 32 32 S 9 15 30.28 1025 10 16 0.00 0.00
8:52 pm 20:52 Mostly Cloudy 49 9.4 21 -6.1 33 33 S 7 11 30.28 1026 10 16 0.00 0.00
9:52 pm 21:52 Mostly Cloudy 48 8.9 25 -3.9 41 41 S 7 11 30.28 1026 10 16 0.00 0.00
10:52 pm 22:52 Mostly Cloudy 47 8.3 24 -4.4 41 41 S 9 15 30.27 1025 10 16 0.00 0.00
11:52 pm 23:52 Mostly Cloudy 46 7.8 25 -3.9 44 44 SSW 8 13 30.26 1025 10 16 0.00 0.00

Powered by AerisWeather